JA3VQW-13 Hirakata JP current weather conditions

sailwx.info

Wind from 135

Air temperature 27.8° C
Dewpoint 5.9° C

Last reported at 2017-Sep-24 07:43 UTC.
Time now 2017-Sep-24 09:03 UTC

Location: N 34°48' E 135°40'.
View on Google Maps.

See reports from other nearby stations

  
Tides and Currents Weather Stations Pressure Air Temp Water Temp Dewpoint Dewpoint Depression Visibility Wind Speed Wind Dir Waves Ship Positions
date/time (UTC)wind fromknots sea level pressurealtimeterstation pressurevisibilityair tempwater tempwave heightnotes
2017-Sep-24 07:43 135 27.8
2017-Sep-24 07:13 174 27.8
2017-Sep-24 06:43 135 28.9
2017-Sep-24 06:13 270 29.4
2017-Sep-24 05:43 270 29.4
2017-Sep-24 05:13 270 29.4
2017-Sep-24 04:43 270 28.9
2017-Sep-24 04:13 270 29.4
2017-Sep-24 03:43 292 27.8
2017-Sep-24 03:13 315 28.3
2017-Sep-24 02:43 315 29.4
2017-Sep-24 02:13 292 30.6
2017-Sep-24 01:43 292 28.9
2017-Sep-24 01:13 315 27.8
2017-Sep-24 00:43 270 25.0
2017-Sep-24 00:13 292 23.3
2017-Sep-23 23:43 292 22.2
2017-Sep-23 23:13 292 21.7
2017-Sep-23 22:43 292 20.6
2017-Sep-23 22:39 292 20.6
2017-Sep-23 22:13 308 20.0
2017-Sep-23 22:09 315 20.0
2017-Sep-23 21:54 315 20.0
2017-Sep-23 21:43 315 19.4
2017-Sep-23 21:13 315 19.4
2017-Sep-23 20:54 315 20.0
2017-Sep-23 20:43 315 20.0
2017-Sep-23 20:39 315 20.0
2017-Sep-23 20:13 315 20.0
2017-Sep-23 19:43 315 20.6
2017-Sep-23 19:13 315 20.6
2017-Sep-23 18:43 315 20.6
2017-Sep-23 18:13 315 20.6
2017-Sep-23 17:43 315 21.1
2017-Sep-23 17:13 315 21.1
2017-Sep-23 16:43 315 21.1
2017-Sep-23 16:13 315 21.1
2017-Sep-23 15:43 315 21.1
2017-Sep-23 15:24 315 21.7
2017-Sep-23 15:13 315 21.7
2017-Sep-23 14:43 315 22.2
2017-Sep-23 14:13 315 22.2
2017-Sep-23 13:54 315 22.2
2017-Sep-23 13:43 315 22.2
2017-Sep-23 13:39 315 22.2
2017-Sep-23 13:24 315 22.2
2017-Sep-23 13:13 315 22.2
2017-Sep-23 12:43 315 22.8
2017-Sep-23 12:13 315 22.8
2017-Sep-23 11:43 315 23.3
2017-Sep-23 11:13 315 23.3
2017-Sep-23 10:43 315 23.3
2017-Sep-23 10:13 315 23.9
2017-Sep-23 09:43 315 23.9
2017-Sep-23 09:13 315 24.4
2017-Sep-23 08:43 306 24.4
2017-Sep-23 08:13 275 1 gusting 2 25.0
2017-Sep-23 07:43 265 1 gusting 5 25.6
2017-Sep-23 07:13 275 1 gusting 5 26.1
2017-Sep-23 06:43 260 25.6
2017-Sep-23 06:13 270 25.6
2017-Sep-23 05:43 273 25.6
2017-Sep-23 05:13 298 26.1
2017-Sep-23 04:43 310 1 gusting 1 26.7
2017-Sep-23 04:13 173 26.7
2017-Sep-23 03:43 227 27.2
2017-Sep-23 03:13 292 26.7
2017-Sep-23 02:43 272 24.4
2017-Sep-23 02:13 315 24.4
2017-Sep-23 01:43 179 24.4
2017-Sep-23 01:13 300 1 gusting 1 24.4
2017-Sep-23 00:43 150 23.9
2017-Sep-23 00:13 135 8 gusting 24 23.3
2017-Sep-22 23:43 315 10 gusting 20 23.3
2017-Sep-22 23:13 315 12 gusting 21 22.8
2017-Sep-22 22:43 315 12 gusting 40 21.7
2017-Sep-22 22:13 315 7 gusting 33 21.7
2017-Sep-22 21:43 315 6 gusting 13 21.7
2017-Sep-22 21:13 315 6 gusting 24 21.1
2017-Sep-22 20:43 315 6 gusting 27 21.1
2017-Sep-22 20:13 315 6 gusting 26 21.1
2017-Sep-22 19:43 315 5 gusting 19 21.1
2017-Sep-22 19:13 315 4 gusting 21 21.1
2017-Sep-22 18:43 315 5 gusting 14 21.1
2017-Sep-22 18:13 315 5 gusting 10 21.1
2017-Sep-22 17:43 315 4 gusting 11 21.1
2017-Sep-22 17:13 284 5 gusting 17 21.1
2017-Sep-22 16:43 315 4 gusting 12 21.1
2017-Sep-22 16:13 292 5 gusting 6 21.1
2017-Sep-22 15:43 270 5 gusting 17 21.1
2017-Sep-22 15:13 270 21.1
2017-Sep-22 14:43 292 21.1
2017-Sep-22 14:13 218 21.1
2017-Sep-22 13:43 292 4 gusting 10 21.1
2017-Sep-22 13:13 270 4 gusting 7 21.1
2017-Sep-22 12:43 292 21.1
2017-Sep-22 12:13 292 21.7
2017-Sep-22 11:43 270 21.7
2017-Sep-22 11:13 292 21.7
2017-Sep-22 10:43 292 21.7
2017-Sep-22 10:24 279 21.7
2017-Sep-22 10:13 284 0 gusting 6 21.7
2017-Sep-22 09:43 292 21.7
2017-Sep-22 09:13 315 6 gusting 20 21.7